Regional Weather Roundup
Issued by NWS

Home | Current Version | Previous Version | Text Only | Print | Product List | Glossary Off
Versions: 1 2 3 4 5 6 7 8 9 10 11 12 13 14 15 16 17 18 19 20 21 22 23 24 25 26 27 28 29 30 31 32 33 34 35 36 37 38 39 40 41 42 43 44 45 46 47 48 49 50

000
ASUS45 KABQ 161101
RWRNM
WEATHER ROUNDUP FOR NEW MEXICO
NATIONAL WEATHER SERVICE ALBUQUERQUE NM
500 AM MDT TUE SEP 16 2014

NOTE: "FAIR" MEANS FEW OR NO CLOUDS BELOW 12,000 FEET AGL WITH NO
       SIGNIFICANT WEATHER OR OBSTRUCTIONS TO VISION.

      THIS PRODUCT IS RELEASED AS TWO VERSIONS.  ONE VERSION NEAR
      THE TOP OF THE HOUR CONTAINING PRELIMINARY DATA FROM ALBUQUERQUE
      AND OTHER STATIONS.  A FINAL VERSION WITH ADDITIONAL DATA IS
      ISSUED ABOUT 10 MINUTES AFTER THE HOUR.

NMZ501-503-504-510>518-161200-
NORTHWEST PLATEAU/NORTHCENTRAL MOUNTAINS

CITY           SKY/WX    TMP DP  RH WIND       PRES   REMARKS
FARMINGTON     CLEAR     56  43  61 N5        30.27S
LOS ALAMOS     CLOUDY    58  53  85 S6        30.41F
SANTA FE       CLOUDY    60  53  77 CALM      30.36S
ANGEL FIRE     CLOUDY    38  36  91 CALM      30.49S

$$
NMZ402-403-502-505>509-161200-
WESTCENTRAL MOUNTAINS/SOUTHWEST MOUNTAINS

CITY           SKY/WX    TMP DP  RH WIND       PRES   REMARKS
GALLUP         MOCLDY    60  50  69 CALM      30.30F
GRANTS         CLOUDY    57  54  88 S5        30.36S
SILVER CITY    LGT RAIN  63  63 100 SE7       30.29F

$$
NMZ407-409-411-412-161200-
SOUTHERN DESERTS

CITY           SKY/WX    TMP DP  RH WIND       PRES   REMARKS
LORDSBURG      LGT RAIN  63  63 100 SE8       30.19F
DEMING         RAIN      65  65 100 E7        30.21S FOG
LAS CRUCES     CLOUDY    65  64  96 SE5       30.24S
HOLLOMAN AFB   MOCLDY    68  64  86 S3        30.20R
ALAMOGORDO     CLOUDY    66  63  88 CALM      30.22S
T OR C         CLOUDY    63  62  97 N6        30.24S

$$
NMZ519>523-161200-
CENTRAL VALLEYS/CENTRAL HIGHLANDS

CITY           SKY/WX    TMP DP  RH WIND       PRES   REMARKS
ALBUQUERQUE    CLOUDY    66  55  67 E10       30.29F
DOUBLE EAGLE   CLOUDY    59  57  91 CALM      30.32F
CLINES CORNERS CLOUDY    55  53  93 E3        30.38F
BELEN          CLOUDY    64  60  86 NW5       30.28F
SOCORRO        CLOUDY    64  63  96 CALM      30.26S

$$
NMZ524>526-539-540-161200-
SOUTHCENTRAL MOUNTAINS

CITY           SKY/WX    TMP DP  RH WIND       PRES   REMARKS
RUIDOSO        NOT AVBL

$$
NMZ527>531-161200-
NORTHEAST HIGHLANDS/NORTHEAST PLAINS

CITY           SKY/WX    TMP DP  RH WIND       PRES   REMARKS
LAS VEGAS      CLOUDY    54  53  97 S10       30.37F
RATON          CLOUDY    55  51  86 W3        30.33F
CLAYTON        CLEAR     53  50  89 S8        30.28S

$$
NMZ532>537-161200-
EASTCENTRAL PLAINS

CITY           SKY/WX    TMP DP  RH WIND       PRES   REMARKS
TUCUMCARI      CLOUDY    62  56  80 CALM      30.27S
CANNON AFB     CLOUDY    61  57  88 NE6       30.28S FOG
CLOVIS AIRPORT   N/A     61  57  88 NE7       30.30S

$$
NMZ028-029-538-161200-
SOUTHEAST PLAINS

CITY           SKY/WX    TMP DP  RH WIND       PRES   REMARKS
ROSWELL        CLOUDY    66  64  93 CALM      30.22S
CARLSBAD       CLOUDY    69  69 100 NE3       30.19S FOG


$$



USA.gov is the U.S. government's official web portal to all federal, state and local government web resources and services.